sat.trackr.live / text

‹ back to catalog

YAOGAN-30 10C

NORAD 48863 · 2021-055D

PAYLOAD ACTIVE UNKNOWN

§ Identity

Operator
Country
PRC
Launch date
2021-06-18
Launch site
XICLF
Launch vehicle
Mass (kg)
RCS (m²)

External: N2YO · Heavens-Above · Gunter

§ Orbital elements

Epoch: 2026-05-25T02:12:33.187392Z

Period
95.84 min
Inclination
34.9960°
Eccentricity
0.0003886
Mean motion
15.02555066 rev/d
Perigee alt
556.3 km
Apogee alt
561.7 km
Semi-major
6,937.2 km
B*
1.7607e-4
RAAN
292.2816°
Arg perigee
313.5989°
Mean anomaly
46.4396°
Rev number
26,941

§ Raw data

YAOGAN-30 10C1 48863U 21055D   26145.09205078  .00002360  00000+0  17607-3 0  99952 48863  34.9960 292.2816 0003886 313.5989  46.4396 15.02555066269414

JSON: /api/v1/satellites/48863 · /tle

For live sub-satellite position, see the globe view (requires WebGL).

§ Visibility from observer

Set your observer location to see the next 7 days of passes ≥ 10°. The values pass through the URL so the page stays shareable.

No JS? Fill the form by hand. The geolocation button needs JavaScript.